Погода в Евпраксино

Россия / Астраханская область     46°14′13″N   48°11′33″E
темп.,
°C
ветер,
м/с
пор.,
м/с
влажн.,
%
обл.,
%
осадки,
мм/ч
давл.,
гПа
погр.,
м
16 сентября, чт
чт1601:00+19з34520 0.0 101269
04:00+18ссв47540 0.0 1011113
07:00+17ссв35380 0.0 101292
10:00+24ссв442596 0.0 1012642
13:00+27с432389 0.0 10121214
16:00+27ссз542354 0.0 10111685
19:00+21ссз482664 0.0 1012161
22:00+20с51025100 0.0 1014528
17 сентября, пт
пт1701:00+16с5113787 0.0 1015345
04:00+13ссв4947100 0.0 1016260
07:00+12ссв384896 0.0 1017325
10:00+16ссв453584 0.0 1018882
13:00+20ссв4427100 0.0 10171306
16:00+21ссв3325100 0.0 10161508
19:00+17ссв343599 0.0 101744
22:00+13юв11455 0.0 101811
18 сентября, сб
сб1801:00+12св11480 0.0 101710
04:00+14всв224343 0.0 101743
07:00+14всв2342100 0.0 101891
10:00+17в23355 0.0 1019439
13:00+22всв22243 0.0 10181867
16:00+23всв32215 0.0 10172237
19:00+15юв36495 0.0 101897
22:00+13ююв33625 0.0 102036
19 сентября, вс
вс1901:00+12юв22625 0.0 102016
04:00+12вюв336111 0.0 102031
07:00+12в346497 0.0 102170
10:00+20вюв6741100 0.0 10211304
13:00+22вюв7837100 0.0 10211559
16:00+20вюв8840100 0.0 10201268
19:00+16вюв6115832 0.0 1020450
22:00+15в5136084 0.0 1020382
20 сентября, пн
пн2001:00+16вюв5125699 0.0 1019432
04:00+17вюв71252100 0.0 1018525
07:00+17вюв7145297 0.0 1017442
10:00+22вюв9123547 0.0 1016728
13:00+25юв8103172 0.0 10151134
16:00+24юв8104069 0.0 10141111
19:00+19юв4765100 0.2 1015312
22:00+16вюв489089 0.3 1015179